Find Starlink 6377

NORAD ID: 57341 Int'l Des: 2023-099 Owner: SPXS Country: US Constellation: starlink operational
LEOCIRCULAR

リアルタイム位置

3D地球を読み込み中...

Starlink 6377について

説明を読み込み中...

次回通過

Passes for default location (London). Set your location on the main map for personalized predictions.

高度履歴

Loading altitude history...

軌道要素

1 57341U 23099P 26129.67288932 -.00000194 00000-0 24808-5 0 9990
2 57341 43.0011 271.3595 0001398 270.3150 89.7542 15.27575279155367
Epoch: May 9, 2026 • Age: 10 hours

現在のステータス

高度 490.4 km
速度 7.62 km/s
衛星直下点 -29.94°S, 139.41°W
打ち上げ日 Jul 16, 2023
運用期間 2.8 years
タイプ internet

技術仕様

分類 Payload
質量 305.00 kg
乾燥質量 290.00 kg
総質量 305.00 kg
長さ 0.20 m
直径 2.80 m
スパン 9.00 m
形状 Box + pan
製造者 SPXS
バスタイプ Starlink
フェーズステータス In Orbit
所有者/国 SPXS/US

Most Searched